Flag for Switzerland Weather past 2 weeks in Lucerne, Lucerne, Switzerland

Now
40 °F

Chilly.


Feels Like: 40 °F
Forecast: 32 / 64 °F
Wind: 1 mph from West

Location: Giswil

Current Time: Apr 18, 2015 at 11:38:30 PM

Latest Report: Apr 18, 2015 at 10:00 PM


Visibility: N/A

Pressure: 30.17 "Hg

Humidity: 98%

Dew point: 39 °F

Location of LucerneLocation

Historic Weather in Lucerne — Graph

°F

Lucerne temperature yesterday

Maximum temperature yesterday: 59 °F (at 5:00 PM)
Minimum temperature yesterday: 49 °F (at 4:00 AM)
Average temperature yesterday: 53 °F

Past Weeks' High & Low Weather Summary

 TemperatureHumidityPressure
High73 °F (Apr 15, 5:00 PM)100% (Apr 18, 2:00 AM)30.63 "Hg (Apr 18, 2:00 AM)
Low24 °F (Apr 6, 7:00 AM)24% (Apr 9, 5:00 PM)29.84 "Hg (Apr 4, 5:00 PM)
Average47 °F73%30.26 "Hg
* Reported Apr 3 10:00 PM — Apr 18 10:00 PM, Lucerne, Weather by CustomWeather, © 2015

Note: Actual official high and low records may vary slightly from our data, if they occured in-between our weather recording intervals... More about our weather records

Advertising

Lucerne weather history for previous 24 hours

 ConditionsComfort  
Time TempWeatherWind HumidityBarometerVisibility
10:00 PM
Sat, Apr 18
40 °FChilly.1 mph98%30.17 "HgN/A
9:00 PM45 °FQuite cool.1 mph92%30.15 "HgN/A
8:00 PM47 °FCool.1 mph84%30.14 "HgN/A
7:00 PM48 °FCool.1 mph82%30.15 "HgN/A
6:00 PM48 °FCool.No wind74%30.15 "HgN/A
5:00 PM48 °FCool.1 mph76%30.16 "HgN/A
4:00 PM47 °FCool.1 mph74%30.17 "HgN/A
3:00 PM46 °FCool.2 mph80%30.19 "HgN/A
2:00 PM44 °FQuite cool.3 mph90%30.20 "HgN/A
1:00 PM44 °FQuite cool.3 mph89%30.20 "HgN/A
12:00 PM44 °FQuite cool.6 mph87%30.19 "HgN/A
11:00 AM44 °FQuite cool.7 mph89%30.18 "HgN/A
10:00 AM45 °FQuite cool.6 mph90%30.14 "HgN/A
9:00 AM45 °FCool.7 mph90%30.14 "HgN/A
8:00 AM46 °FCool.6 mph91%30.12 "HgN/A
7:00 AM46 °FCool.8 mph92%30.10 "HgN/A
6:00 AM47 °FCool.8 mph94%30.08 "HgN/A
4:00 AM48 °FCool.No wind98%30.07 "HgN/A
3:00 AM48 °FCool.2 mph99%30.06 "HgN/A
2:00 AM49 °FCool.1 mph100%30.07 "HgN/A
1:00 AM50 °FCool.No wind94%30.06 "HgN/A
12:00 AM51 °FCool.8 mph89%30.04 "HgN/A
11:00 PM
Fri, Apr 17
53 °FCool.2 mph97%29.99 "HgN/A
Weather by CustomWeather, © 2015

See weather overviewHow to use our weather pages